Location: Aucun
(42.9667°N, 0.1667°W)
Time: 06:14:11
(UTC+00:00)

NOSS 3-1 (C) - Pass Details

Date: 17 February 2020
Orbit: 759 x 1449 km, 63.4° (Epoch: 26 March)

Event Time Altitude Azimuth Distance (km) Brightness Sun altitude
Exits shadow 04:36:47 45° 293° (WNW) 1,699 4.3 -26.1°
Maximum altitude 04:39:06 60° 241° (WSW) 1,498 4.1 -25.7°
Drops below altitude 10° 04:47:37 10° 164° (SSE) 3,518 6.5 -24.1°
Sets 04:50:41 0° 161° (SSE) 4,520 7.1 -23.6°
